Terug naar catalogus

SL-6 R/B(2)

ActiefHEO
NORAD 16854·ROCKET BODY·🇷🇺 Russia

Gelanceerd Jul 5, 1986 vanaf Plesetsk Cosmodrome

Loading…

Volgende Passages (komende 24 uur)

TLE

VersSource: Space-Track

Epoch: Sep 14, 2026, 02:16 UTC

1 16854U 86050D   26257.09448087 -.00000435  00000-0  00000-0 0  9998
2 16854  65.2677 273.8478 6685920   0.5832 359.9888  2.02824013297754

Volg SL-6 R/B(2) in realtime met AllMySat

Download on the App Store